Time,TemperatureF,DewpointF,PressureIn,WindDirection,WindDirectionDegrees,WindSpeedMPH,WindSpeedGustMPH,Humidity,HourlyPrecipIn,Conditions,Clouds,dailyrainin,SoftwareType,DateUTC
2013-04-13 00:02:00,38.0,32.0,-100.00,West,260,6.0,16.0,78,-99.99,,,-99.99,,2013-04-13 05:02:00,
2013-04-13 00:12:00,38.0,31.0,-100.00,West,270,9.0,17.0,76,-99.99,,,-99.99,,2013-04-13 05:12:00,
2013-04-13 00:22:00,38.0,31.0,-100.00,WSW,245,9.0,16.0,76,-99.99,,,-99.99,,2013-04-13 05:22:00,
2013-04-13 00:32:00,38.0,31.0,-100.00,WSW,245,9.0,16.0,76,-99.99,,,-99.99,,2013-04-13 05:32:00,
2013-04-13 00:43:00,38.0,31.0,-100.00,WSW,255,5.0,14.0,77,-99.99,,,-99.99,,2013-04-13 05:43:00,
2013-04-13 00:53:00,37.0,31.0,-100.00,West,270,5.0,14.0,78,-99.99,,,-99.99,,2013-04-13 05:53:00,
2013-04-13 01:02:00,37.0,31.0,-100.00,West,270,5.0,14.0,78,-99.99,,,-99.99,,2013-04-13 06:02:00,
2013-04-13 01:12:00,37.0,31.0,-100.00,West,260,11.0,19.0,77,-99.99,,,-99.99,,2013-04-13 06:12:00,
2013-04-13 01:24:00,38.0,31.0,-100.00,WSW,240,11.0,19.0,78,-99.99,,,-99.99,,2013-04-13 06:24:00,
2013-04-13 01:34:00,38.0,31.0,-100.00,WSW,240,11.0,19.0,78,-99.99,,,-99.99,,2013-04-13 06:34:00,
2013-04-13 01:47:00,37.0,31.0,-100.00,SW,235,5.0,17.0,79,-99.99,,,-99.99,,2013-04-13 06:47:00,
2013-04-13 01:55:00,37.0,31.0,-100.00,SW,235,6.0,20.0,79,-99.99,,,-99.99,,2013-04-13 06:55:00,
2013-04-13 02:05:00,37.0,31.0,-100.00,SW,235,6.0,20.0,79,-99.99,,,-99.99,,2013-04-13 07:05:00,
2013-04-13 02:14:00,37.0,31.0,-100.00,WSW,240,8.0,13.0,81,-99.99,,,-99.99,,2013-04-13 07:14:00,
2013-04-13 02:24:00,36.0,31.0,-100.00,WSW,245,9.0,21.0,79,-99.99,,,-99.99,,2013-04-13 07:24:00,
2013-04-13 02:34:00,36.0,31.0,-100.00,WSW,245,9.0,21.0,79,-99.99,,,-99.99,,2013-04-13 07:34:00,
2013-04-13 02:45:00,36.0,31.0,-100.00,WSW,255,7.0,17.0,82,-99.99,,,-99.99,,2013-04-13 07:45:00,
2013-04-13 02:56:00,36.0,31.0,-100.00,WSW,255,6.0,15.0,81,-99.99,,,-99.99,,2013-04-13 07:56:00,
2013-04-13 03:06:00,36.0,31.0,-100.00,WSW,255,6.0,15.0,81,-99.99,,,-99.99,,2013-04-13 08:06:00,
2013-04-13 03:15:00,36.0,30.0,-100.00,West,260,10.0,19.0,79,-99.99,,,-99.99,,2013-04-13 08:15:00,
2013-04-13 03:25:00,36.0,30.0,-100.00,SW,235,10.0,21.0,77,-99.99,,,-99.99,,2013-04-13 08:25:00,
2013-04-13 03:34:00,36.0,30.0,-100.00,SW,235,10.0,21.0,77,-99.99,,,-99.99,,2013-04-13 08:34:00,
2013-04-13 03:45:00,36.0,29.0,-100.00,West,260,8.0,18.0,76,-99.99,,,-99.99,,2013-04-13 08:45:00,
2013-04-13 03:54:00,36.0,29.0,-100.00,West,260,8.0,22.0,75,-99.99,,,-99.99,,2013-04-13 08:54:00,
2013-04-13 04:05:00,36.0,29.0,-100.00,West,260,8.0,22.0,75,-99.99,,,-99.99,,2013-04-13 09:05:00,
2013-04-13 04:14:00,36.0,29.0,-100.00,WSW,250,9.0,21.0,76,-99.99,,,-99.99,,2013-04-13 09:14:00,
2013-04-13 04:24:00,36.0,29.0,-100.00,WSW,250,9.0,19.0,75,-99.99,,,-99.99,,2013-04-13 09:24:00,
2013-04-13 04:36:00,36.0,29.0,-100.00,WSW,250,9.0,19.0,75,-99.99,,,-99.99,,2013-04-13 09:36:00,
2013-04-13 04:50:00,36.0,28.0,-100.00,WSW,245,6.0,21.0,74,-99.99,,,-99.99,,2013-04-13 09:50:00,
2013-04-13 04:55:00,36.0,29.0,-100.00,WSW,240,7.0,24.0,75,-99.99,,,-99.99,,2013-04-13 09:55:00,
2013-04-13 05:05:00,36.0,29.0,-100.00,WSW,240,7.0,24.0,75,-99.99,,,-99.99,,2013-04-13 10:05:00,
2013-04-13 05:15:00,35.0,28.0,-100.00,WSW,245,10.0,21.0,74,-99.99,,,-99.99,,2013-04-13 10:15:00,
2013-04-13 05:24:00,35.0,29.0,-100.00,WSW,250,5.0,21.0,76,-99.99,,,-99.99,,2013-04-13 10:24:00,
2013-04-13 05:36:00,35.0,29.0,-100.00,WSW,250,5.0,21.0,76,-99.99,,,-99.99,,2013-04-13 10:36:00,
2013-04-13 05:46:00,35.0,28.0,-100.00,SW,235,10.0,19.0,76,-99.99,,,-99.99,,2013-04-13 10:46:00,
2013-04-13 05:55:00,35.0,29.0,-100.00,SW,230,11.0,20.0,77,-99.99,,,-99.99,,2013-04-13 10:55:00,
2013-04-13 06:06:00,35.0,29.0,-100.00,SW,230,11.0,20.0,77,-99.99,,,-99.99,,2013-04-13 11:06:00,
2013-04-13 06:13:00,35.0,28.0,-100.00,SW,235,9.0,19.0,75,-99.99,,,-99.99,,2013-04-13 11:13:00,
2013-04-13 06:24:00,35.0,28.0,-100.00,SW,235,11.0,19.0,76,-99.99,,,-99.99,,2013-04-13 11:24:00,
2013-04-13 06:34:00,35.0,28.0,-100.00,SW,235,11.0,19.0,76,-99.99,,,-99.99,,2013-04-13 11:34:00,
2013-04-13 06:44:00,35.0,28.0,-100.00,WSW,245,11.0,18.0,76,-99.99,,,-99.99,,2013-04-13 11:44:00,
2013-04-13 06:54:00,35.0,28.0,-100.00,WSW,250,11.0,19.0,76,-99.99,,,-99.99,,2013-04-13 11:54:00,
2013-04-13 07:08:00,35.0,28.0,-100.00,WSW,250,11.0,19.0,76,-99.99,,,-99.99,,2013-04-13 12:08:00,
2013-04-13 07:15:00,35.0,28.0,-100.00,WSW,240,9.0,19.0,75,-99.99,,,-99.99,,2013-04-13 12:15:00,
2013-04-13 07:25:00,35.0,28.0,-100.00,WSW,245,7.0,19.0,76,-99.99,,,-99.99,,2013-04-13 12:25:00,
2013-04-13 07:35:00,35.0,28.0,-100.00,WSW,245,7.0,19.0,76,-99.99,,,-99.99,,2013-04-13 12:35:00,
2013-04-13 07:47:00,35.0,28.0,-100.00,SW,230,6.0,22.0,76,-99.99,,,-99.99,,2013-04-13 12:47:00,
2013-04-13 07:55:00,35.0,28.0,-100.00,WSW,250,11.0,22.0,76,-99.99,,,-99.99,,2013-04-13 12:55:00,
2013-04-13 08:05:00,35.0,28.0,-100.00,WSW,250,11.0,22.0,76,-99.99,,,-99.99,,2013-04-13 13:05:00,
2013-04-13 08:15:00,35.0,28.0,-100.00,SW,230,11.0,22.0,76,-99.99,,,-99.99,,2013-04-13 13:15:00,
2013-04-13 08:27:00,35.0,29.0,-100.00,WSW,250,9.0,16.0,76,-99.99,,,-99.99,,2013-04-13 13:27:00,
2013-04-13 08:47:00,36.0,28.0,-100.00,SW,230,9.0,21.0,75,-99.99,,,-99.99,,2013-04-13 13:47:00,
2013-04-13 09:04:00,36.0,28.0,-100.00,West,260,11.0,20.0,75,-99.99,,,-99.99,,2013-04-13 14:04:00,
2013-04-13 09:14:00,36.0,29.0,-100.00,WSW,250,9.0,20.0,75,-99.99,,,-99.99,,2013-04-13 14:14:00,
2013-04-13 09:23:00,36.0,29.0,-100.00,WSW,240,10.0,20.0,73,-99.99,,,-99.99,,2013-04-13 14:23:00,
2013-04-13 09:45:00,36.0,27.0,-100.00,WSW,250,13.0,24.0,69,-99.99,,,-99.99,,2013-04-13 14:45:00,
2013-04-13 09:59:00,36.0,27.0,-100.00,WSW,255,11.0,24.0,69,-99.99,,,-99.99,,2013-04-13 14:59:00,
2013-04-13 10:05:00,36.0,27.0,-100.00,WSW,255,11.0,24.0,69,-99.99,,,-99.99,,2013-04-13 15:05:00,
2013-04-13 10:14:00,39.0,28.0,-100.00,West,260,11.0,21.0,63,-99.99,,,-99.99,,2013-04-13 15:14:00,
2013-04-13 10:29:00,38.0,25.0,-100.00,West,270,10.0,21.0,61,-99.99,,,-99.99,,2013-04-13 15:29:00,
2013-04-13 10:35:00,38.0,25.0,-100.00,West,270,10.0,21.0,61,-99.99,,,-99.99,,2013-04-13 15:35:00,
2013-04-13 10:44:00,40.0,25.0,-100.00,WSW,250,14.0,25.0,55,-99.99,,,-99.99,,2013-04-13 15:44:00,
2013-04-13 10:58:00,40.0,27.0,-100.00,WSW,245,12.0,24.0,59,-99.99,,,-99.99,,2013-04-13 15:58:00,
2013-04-13 11:06:00,40.0,27.0,-100.00,WSW,245,12.0,24.0,59,-99.99,,,-99.99,,2013-04-13 16:06:00,
2013-04-13 11:15:00,41.0,26.0,-100.00,West,270,11.0,21.0,54,-99.99,,,-99.99,,2013-04-13 16:15:00,
2013-04-13 11:24:00,40.0,25.0,-100.00,West,260,10.0,24.0,56,-99.99,,,-99.99,,2013-04-13 16:24:00,
2013-04-13 11:35:00,40.0,25.0,-100.00,West,260,10.0,24.0,56,-99.99,,,-99.99,,2013-04-13 16:35:00,
2013-04-13 11:45:00,39.0,27.0,-100.00,SW,235,13.0,26.0,61,-99.99,,,-99.99,,2013-04-13 16:45:00,
2013-04-13 11:56:00,42.0,27.0,-100.00,West,270,9.0,18.0,56,-99.99,,,-99.99,,2013-04-13 16:56:00,
2013-04-13 12:20:00,41.0,28.0,-100.00,West,260,12.0,21.0,60,-99.99,,,-99.99,,2013-04-13 17:20:00,
2013-04-13 12:37:00,42.0,28.0,-100.00,SW,235,10.0,20.0,59,-99.99,,,-99.99,,2013-04-13 17:37:00,
2013-04-13 12:44:00,41.0,28.0,-100.00,WNW,285,11.0,19.0,60,-99.99,,,-99.99,,2013-04-13 17:44:00,
2013-04-13 13:04:00,42.0,28.0,-100.00,WNW,285,11.0,21.0,58,-99.99,,,-99.99,,2013-04-13 18:04:00,
2013-04-13 13:15:00,45.0,28.0,-100.00,WSW,245,11.0,19.0,52,-99.99,,,-99.99,,2013-04-13 18:15:00,
2013-04-13 13:24:00,44.0,29.0,-100.00,WSW,250,3.0,18.0,56,-99.99,,,-99.99,,2013-04-13 18:24:00,
2013-04-13 13:33:00,44.0,29.0,-100.00,WSW,250,3.0,18.0,56,-99.99,,,-99.99,,2013-04-13 18:33:00,
2013-04-13 13:42:00,43.0,29.0,-100.00,West,260,11.0,21.0,58,-99.99,,,-99.99,,2013-04-13 18:42:00,
2013-04-13 13:53:00,45.0,29.0,-100.00,SW,225,2.0,21.0,53,-99.99,,,-99.99,,2013-04-13 18:53:00,
2013-04-13 14:03:00,45.0,29.0,-100.00,SW,225,2.0,21.0,53,-99.99,,,-99.99,,2013-04-13 19:03:00,
2013-04-13 14:12:00,46.0,29.0,-100.00,WSW,240,9.0,19.0,50,-99.99,,,-99.99,,2013-04-13 19:12:00,
2013-04-13 14:22:00,45.0,29.0,-100.00,West,260,9.0,19.0,53,-99.99,,,-99.99,,2013-04-13 19:22:00,
2013-04-13 14:32:00,45.0,29.0,-100.00,West,260,9.0,19.0,53,-99.99,,,-99.99,,2013-04-13 19:32:00,
2013-04-13 14:42:00,47.0,28.0,-100.00,WSW,245,9.0,19.0,47,-99.99,,,-99.99,,2013-04-13 19:42:00,
2013-04-13 14:53:00,47.0,29.0,-100.00,SW,230,8.0,19.0,50,-99.99,,,-99.99,,2013-04-13 19:53:00,
2013-04-13 15:02:00,47.0,29.0,-100.00,SW,230,8.0,19.0,50,-99.99,,,-99.99,,2013-04-13 20:02:00,
2013-04-13 15:12:00,47.0,29.0,-100.00,WSW,250,11.0,19.0,49,-99.99,,,-99.99,,2013-04-13 20:12:00,
2013-04-13 15:22:00,48.0,29.0,-100.00,West,260,11.0,18.0,48,-99.99,,,-99.99,,2013-04-13 20:22:00,
2013-04-13 15:32:00,48.0,29.0,-100.00,West,260,11.0,18.0,48,-99.99,,,-99.99,,2013-04-13 20:32:00,
2013-04-13 15:42:00,50.0,29.0,-100.00,WSW,240,11.0,19.0,45,-99.99,,,-99.99,,2013-04-13 20:42:00,
2013-04-13 15:52:00,47.0,28.0,-100.00,West,280,6.0,16.0,47,-99.99,,,-99.99,,2013-04-13 20:52:00,
2013-04-13 16:02:00,47.0,28.0,-100.00,West,280,6.0,16.0,47,-99.99,,,-99.99,,2013-04-13 21:02:00,
2013-04-13 16:12:00,49.0,31.0,-100.00,WSW,250,7.0,18.0,49,-99.99,,,-99.99,,2013-04-13 21:12:00,
2013-04-13 16:22:00,48.0,30.0,-100.00,WNW,285,6.0,14.0,50,-99.99,,,-99.99,,2013-04-13 21:22:00,
2013-04-13 16:33:00,48.0,30.0,-100.00,WNW,285,6.0,14.0,50,-99.99,,,-99.99,,2013-04-13 21:33:00,
2013-04-13 16:43:00,47.0,29.0,-100.00,WSW,250,11.0,16.0,51,-99.99,,,-99.99,,2013-04-13 21:43:00,
2013-04-13 16:53:00,47.0,31.0,-100.00,West,275,8.0,15.0,53,-99.99,,,-99.99,,2013-04-13 21:53:00,
2013-04-13 17:03:00,47.0,31.0,-100.00,West,275,8.0,15.0,53,-99.99,,,-99.99,,2013-04-13 22:03:00,
2013-04-13 17:12:00,48.0,32.0,-100.00,West,270,6.0,14.0,54,-99.99,,,-99.99,,2013-04-13 22:12:00,
2013-04-13 17:22:00,48.0,30.0,-100.00,West,260,6.0,15.0,50,-99.99,,,-99.99,,2013-04-13 22:22:00,
2013-04-13 17:33:00,48.0,30.0,-100.00,West,260,6.0,15.0,50,-99.99,,,-99.99,,2013-04-13 22:33:00,
2013-04-13 17:42:00,49.0,30.0,-100.00,West,260,8.0,17.0,48,-99.99,,,-99.99,,2013-04-13 22:42:00,
2013-04-13 17:53:00,50.0,32.0,-100.00,SW,230,6.0,11.0,49,-99.99,,,-99.99,,2013-04-13 22:53:00,
2013-04-13 18:02:00,50.0,32.0,-100.00,SW,230,6.0,11.0,49,-99.99,,,-99.99,,2013-04-13 23:02:00,
2013-04-13 18:12:00,49.0,32.0,-100.00,West,260,4.0,14.0,53,-99.99,,,-99.99,,2013-04-13 23:12:00,
2013-04-13 18:22:00,50.0,32.0,-100.00,West,265,4.0,9.0,50,-99.99,,,-99.99,,2013-04-13 23:22:00,
2013-04-13 18:32:00,50.0,32.0,-100.00,West,265,4.0,9.0,50,-99.99,,,-99.99,,2013-04-13 23:32:00,
2013-04-13 18:42:00,49.0,31.0,-100.00,West,265,5.0,11.0,51,-99.99,,,-99.99,,2013-04-13 23:42:00,
2013-04-13 18:53:00,48.0,31.0,-100.00,West,265,7.0,11.0,50,-99.99,,,-99.99,,2013-04-13 23:53:00,
2013-04-13 19:02:00,48.0,31.0,-100.00,West,265,7.0,11.0,50,-99.99,,,-99.99,,2013-04-14 00:02:00,
2013-04-13 19:12:00,48.0,31.0,-100.00,WSW,255,8.0,13.0,51,-99.99,,,-99.99,,2013-04-14 00:12:00,
2013-04-13 19:22:00,49.0,31.0,-100.00,WSW,245,5.0,9.0,50,-99.99,,,-99.99,,2013-04-14 00:22:00,
2013-04-13 19:32:00,49.0,31.0,-100.00,WSW,245,5.0,9.0,50,-99.99,,,-99.99,,2013-04-14 00:32:00,
2013-04-13 19:42:00,49.0,31.0,-100.00,WSW,245,5.0,9.0,50,-99.99,,,-99.99,,2013-04-14 00:42:00,
2013-04-13 19:52:00,47.0,32.0,-100.00,West,270,1.0,6.0,55,-99.99,,,-99.99,,2013-04-14 00:52:00,
2013-04-13 20:02:00,47.0,32.0,-100.00,West,270,1.0,6.0,55,-99.99,,,-99.99,,2013-04-14 01:02:00,
2013-04-13 20:12:00,47.0,33.0,-100.00,SW,230,0.0,1.0,58,-99.99,,,-99.99,,2013-04-14 01:12:00,
2013-04-13 20:22:00,47.0,31.0,-100.00,SW,220,0.0,0.0,54,-99.99,,,-99.99,,2013-04-14 01:22:00,
2013-04-13 20:32:00,47.0,31.0,-100.00,SW,220,0.0,0.0,54,-99.99,,,-99.99,,2013-04-14 01:32:00,
2013-04-13 20:42:00,47.0,31.0,-100.00,ENE,60,0.0,0.0,53,-99.99,,,-99.99,,2013-04-14 01:42:00,
2013-04-13 20:53:00,47.0,32.0,-100.00,SSE,150,0.0,0.0,56,-99.99,,,-99.99,,2013-04-14 01:53:00,
2013-04-13 21:02:00,47.0,32.0,-100.00,SSE,150,0.0,0.0,56,-99.99,,,-99.99,,2013-04-14 02:02:00,
2013-04-13 21:12:00,47.0,31.0,-100.00,North,5,0.0,0.0,53,-99.99,,,-99.99,,2013-04-14 02:12:00,
2013-04-13 21:22:00,47.0,33.0,-100.00,ESE,110,0.0,0.0,58,-99.99,,,-99.99,,2013-04-14 02:22:00,
2013-04-13 21:32:00,47.0,33.0,-100.00,ESE,110,0.0,0.0,58,-99.99,,,-99.99,,2013-04-14 02:32:00,
2013-04-13 21:42:00,47.0,32.0,-100.00,East,80,0.0,3.0,57,-99.99,,,-99.99,,2013-04-14 02:42:00,
2013-04-13 21:53:00,46.0,32.0,-100.00,NE,50,0.0,4.0,57,-99.99,,,-99.99,,2013-04-14 02:53:00,
2013-04-13 22:02:00,46.0,32.0,-100.00,NE,50,0.0,4.0,57,-99.99,,,-99.99,,2013-04-14 03:02:00,
2013-04-13 22:12:00,46.0,32.0,-100.00,ENE,60,0.0,4.0,58,-99.99,,,-99.99,,2013-04-14 03:12:00,
2013-04-13 22:22:00,45.0,32.0,-100.00,ENE,65,0.0,4.0,58,-99.99,,,-99.99,,2013-04-14 03:22:00,
2013-04-13 22:33:00,45.0,32.0,-100.00,ENE,65,0.0,4.0,58,-99.99,,,-99.99,,2013-04-14 03:33:00,
2013-04-13 22:42:00,45.0,32.0,-100.00,NNE,15,0.0,3.0,59,-99.99,,,-99.99,,2013-04-14 03:42:00,
2013-04-13 22:53:00,45.0,32.0,-100.00,NE,35,0.0,3.0,61,-99.99,,,-99.99,,2013-04-14 03:53:00,
2013-04-13 23:02:00,45.0,32.0,-100.00,NE,35,0.0,3.0,61,-99.99,,,-99.99,,2013-04-14 04:02:00,
2013-04-13 23:12:00,45.0,32.0,-100.00,East,80,0.0,0.0,60,-99.99,,,-99.99,,2013-04-14 04:12:00,
2013-04-13 23:23:00,45.0,33.0,-100.00,NE,35,0.0,3.0,62,-99.99,,,-99.99,,2013-04-14 04:23:00,
2013-04-13 23:33:00,45.0,33.0,-100.00,NE,35,0.0,3.0,62,-99.99,,,-99.99,,2013-04-14 04:33:00,
2013-04-13 23:43:00,45.0,33.0,-100.00,NE,55,0.0,4.0,62,-99.99,,,-99.99,,2013-04-14 04:43:00,
2013-04-13 23:52:00,45.0,32.0,-100.00,NNE,25,1.0,6.0,62,-99.99,,,-99.99,,2013-04-14 04:52:00,